TimeEST,TemperatureF,Dew PointF,Humidity,Sea Level PressureIn,VisibilityMPH,Wind Direction,Wind SpeedMPH,Gust SpeedMPH,PrecipitationIn,Events,Conditions,WindDirDegrees,DateUTC
12:53 AM,32.0,27.0,82,30.25,10.0,East,11.5,-,N/A,,Clear,90,2012-12-06 05:53:00
1:53 AM,32.0,27.0,82,30.22,10.0,East,12.7,-,N/A,,Clear,100,2012-12-06 06:53:00
2:53 AM,32.0,26.1,79,30.22,10.0,ESE,9.2,-,N/A,,Clear,110,2012-12-06 07:53:00
3:53 AM,30.9,26.1,82,30.21,10.0,East,5.8,-,N/A,,Clear,100,2012-12-06 08:53:00
4:53 AM,30.9,26.1,82,30.20,10.0,ESE,5.8,-,N/A,,Clear,120,2012-12-06 09:53:00
5:53 AM,28.9,25.0,85,30.20,10.0,East,4.6,-,N/A,,Clear,90,2012-12-06 10:53:00
6:53 AM,30.0,26.1,85,30.19,10.0,East,6.9,-,N/A,,Clear,100,2012-12-06 11:53:00
7:53 AM,30.0,26.1,85,30.19,10.0,East,6.9,-,N/A,,Clear,100,2012-12-06 12:53:00
8:53 AM,32.0,28.0,85,30.17,10.0,ESE,8.1,-,N/A,,Clear,110,2012-12-06 13:53:00
9:53 AM,35.1,28.9,78,30.16,10.0,ESE,9.2,-,N/A,,Clear,120,2012-12-06 14:53:00
10:53 AM,39.0,32.0,76,30.15,10.0,SE,5.8,-,N/A,,Clear,130,2012-12-06 15:53:00
11:53 AM,42.1,35.1,76,30.12,10.0,SE,5.8,-,N/A,,Clear,140,2012-12-06 16:53:00
12:53 PM,44.1,36.0,73,30.07,10.0,SE,4.6,-,N/A,,Clear,140,2012-12-06 17:53:00
1:53 PM,48.0,37.0,66,30.03,10.0,SE,10.4,-,N/A,,Clear,140,2012-12-06 18:53:00
2:53 PM,48.0,37.0,66,30.02,10.0,SSE,4.6,-,N/A,,Clear,160,2012-12-06 19:53:00
3:53 PM,48.9,37.9,66,30.01,10.0,SSE,5.8,-,N/A,,Partly Cloudy,150,2012-12-06 20:53:00
4:53 PM,48.9,39.9,71,30.00,10.0,SSE,5.8,-,N/A,,Overcast,160,2012-12-06 21:53:00
5:53 PM,48.0,39.9,74,30.00,10.0,SE,4.6,-,N/A,,Overcast,140,2012-12-06 22:53:00
6:53 PM,46.9,39.9,77,30.00,10.0,SSE,5.8,-,N/A,,Overcast,150,2012-12-06 23:53:00
7:53 PM,46.9,39.0,74,29.99,10.0,SSE,5.8,-,N/A,,Overcast,150,2012-12-07 00:53:00
8:53 PM,46.9,39.0,74,29.98,10.0,SSE,6.9,-,0.00,,Overcast,150,2012-12-07 01:53:00
9:53 PM,48.0,41.0,77,29.98,10.0,South,9.2,-,N/A,,Overcast,180,2012-12-07 02:53:00
10:09 PM,48.2,41.0,76,29.96,10.0,South,8.1,-,N/A,,Overcast,180,2012-12-07 03:09:00
10:53 PM,46.9,43.0,86,29.97,10.0,South,9.2,-,N/A,,Overcast,180,2012-12-07 03:53:00
11:53 PM,46.9,44.1,90,29.96,9.0,SSW,4.6,-,N/A,,Overcast,200,2012-12-07 04:53:00